This demonstration page uses our WeatherBlox Daily Observations layout. Learn more.

Left ArrowRight Arrow

40.92501, -98.34201

Hourly Observations for August 12, 2022

Temp ( °F °C ) Dew Point ( °F °C ) Humidity (%) Winds ( mph kmh ) Pressure ( in mb ) Visibility ( mi km ) Precip ( " mm )
12:53 am 00:53 Clear 72 22.2 57 13.9 59 59 S 13 20 30.09 1019 10 16 0.00 0.00
1:53 am 01:53 Clear 71 21.7 57 13.9 61 61 S 12 19 30.09 1019 10 16 0.00 0.00
2:53 am 02:53 Clear 70 21.1 57 13.9 63 63 S 9 15 30.08 1019 10 16 0.00 0.00
3:53 am 03:53 Clear 69 20.6 58 14.4 68 68 S 10 17 30.07 1018 10 16 0.00 0.00
4:53 am 04:53 Clear 69 20.6 56 13.3 63 63 SSW 12 19 30.08 1019 10 16 0.00 0.00
5:53 am 05:53 Clear 69 20.6 56 13.3 63 63 SSW 12 19 30.08 1019 10 16 0.00 0.00
6:53 am 06:53 Sunny 67 19.4 56 13.3 68 68 SSW 10 17 30.10 1019 10 16 0.00 0.00
7:53 am 07:53 Sunny 70 21.1 56 13.3 61 61 SSW 12 19 30.09 1019 10 16 0.00 0.00
8:53 am 08:53 Sunny 75 23.9 56 13.3 51 51 SSW 10 17 30.08 1019 10 16 0.00 0.00
9:53 am 09:53 Sunny 80 26.7 57 13.9 45 45 SSW 12 19 30.08 1019 10 16 0.00 0.00
10:53 am 10:53 Sunny 85 29.4 57 13.9 39 39 SSW 13 20 30.08 1019 10 16 0.00 0.00
11:53 am 11:53 Sunny 88 31.1 58 14.4 36 36 SSW 16 26 30.06 1018 10 16 0.00 0.00
12:53 pm 12:53 Sunny 90 32.2 59 15 35 35 SSW 15 24 30.05 1018 10 16 0.00 0.00
1:53 pm 13:53 Sunny 92 33.3 59 15 33 33 SSW 15 24 30.04 1017 10 16 0.00 0.00
2:53 pm 14:53 Sunny 94 34.4 61 16.1 34 34 S 16 26 30.02 1017 10 16 0.00 0.00
3:53 pm 15:53 Sunny 95 35 54 12.2 25 25 S 16 26 30.00 1016 10 16 0.00 0.00
4:53 pm 16:53 Sunny 95 35 57 13.9 28 28 S 17 28 29.97 1015 10 16 0.00 0.00
5:53 pm 17:53 Sunny 94 34.4 54 12.2 26 26 S 17 28 29.97 1015 10 16 0.00 0.00
6:53 pm 18:53 Sunny 92 33.3 56 13.3 30 30 S 12 19 29.96 1015 10 16 0.00 0.00
7:53 pm 19:53 Sunny 87 30.6 58 14.4 37 37 SSE 9 15 29.95 1014 10 16 0.00 0.00
8:53 pm 20:53 Clear 82 27.8 58 14.4 44 44 SSE 10 17 29.94 1014 10 16 0.00 0.00
9:53 pm 21:53 Clear 79 26.1 57 13.9 47 47 S 13 20 29.96 1014 10 16 0.00 0.00
10:53 pm 22:53 Clear 80 26.7 54 12.2 41 41 S 16 26 29.94 1014 10 16 0.00 0.00
11:53 pm 23:53 Clear 79 26.1 53 11.7 41 41 S 16 26 29.95 1014 10 16 0.00 0.00

Powered by AerisWeather